Simultaneous Nadir Overpasses (SNOs) Predictions

Prediction of SNOs between NOAA-19 and TERRA Satellite Orbit:

Table of predicted SNOs for the next 14.0 days since TLE Epoch: 10/31/2015
Index Date (NOAA-19) Time (NOAA-19) Lat,Lon (NOAA-19) SZA (NOAA-19 ) Date (TERRA) Time (TERRA) Lat,Lon (TERRA) SZA (TERRA ) Distance(km) Time Diff (sec)
1 11/01/2015 08:53:37 72.71, 51.51 87.19 11/01/2015 08:54:31 72.72, 51.45 87.21 2.46 54
2 11/01/2015 09:44:31 -72.65,-141.10 92.85 11/01/2015 09:44:00 -72.65,-141.05 92.86 1.72 31
3 11/03/2015 14:27:47 -72.74, 147.94 92.08 11/03/2015 14:28:18 -72.72, 148.01 92.09 3.05 31
4 11/03/2015 15:18:51 72.59, -44.51 87.80 11/03/2015 15:17:46 72.58, -44.61 87.78 3.45 65
5 11/05/2015 20:02:07 72.70,-115.52 88.58 11/05/2015 20:02:04 72.67,-115.53 88.55 3.60 3
6 11/05/2015 20:52:50 -72.07, 53.07 91.98 11/05/2015 20:51:41 -72.18, 51.20 91.97 64.94 69
7 11/08/2015 00:45:22 72.77, 173.56 89.30 11/08/2015 00:46:22 72.77, 173.58 89.31 0.63 60
8 11/08/2015 01:36:16 -72.67, -18.94 90.79 11/08/2015 01:35:52 -72.66, -19.00 90.81 2.12 24
9 11/10/2015 06:19:32 -72.77, -89.94 90.07 11/10/2015 06:20:10 -72.78, -89.85 90.05 2.99 38
10 11/10/2015 07:10:35 72.63, 77.59 89.82 11/10/2015 07:09:38 72.64, 77.52 89.81 2.61 57
11 11/12/2015 11:53:50 72.72, 6.64 90.51 11/12/2015 11:53:57 72.72, 6.59 90.51 1.62 7
